Year,Month,Day,Hour,Minute,Value (Times are PST for temperature in C)
2017,09,02,00,00,18.50
2017,09,02,00,01,18.50
2017,09,02,00,02,18.50
2017,09,02,00,03,18.50
2017,09,02,00,04,18.50
2017,09,02,00,05,18.40
2017,09,02,00,06,18.40
2017,09,02,00,07,18.40
2017,09,02,00,08,18.40
2017,09,02,00,09,18.40
2017,09,02,00,10,18.40
2017,09,02,00,11,18.40
2017,09,02,00,12,18.30
2017,09,02,00,13,18.30
2017,09,02,00,14,18.30
2017,09,02,00,15,18.30
2017,09,02,00,16,18.30
2017,09,02,00,17,18.30
2017,09,02,00,18,18.30
2017,09,02,00,19,18.30
2017,09,02,00,20,18.30
2017,09,02,00,21,18.30
2017,09,02,00,22,18.30
2017,09,02,00,23,18.20
2017,09,02,00,24,18.20
2017,09,02,00,25,18.20
2017,09,02,00,26,18.20
2017,09,02,00,27,18.20
2017,09,02,00,28,18.20
2017,09,02,00,29,18.20
2017,09,02,00,30,18.20
2017,09,02,00,31,18.20
2017,09,02,00,32,18.20
2017,09,02,00,33,18.20
2017,09,02,00,34,18.20
2017,09,02,00,35,18.20
2017,09,02,00,36,18.20
2017,09,02,00,37,18.20
2017,09,02,00,38,18.20
2017,09,02,00,39,18.20
2017,09,02,00,40,18.20
2017,09,02,00,41,18.20
2017,09,02,00,42,18.10
2017,09,02,00,43,18.10
2017,09,02,00,44,18.10
2017,09,02,00,45,18.10
2017,09,02,00,46,18.10
2017,09,02,00,47,18.10
2017,09,02,00,48,18.10
2017,09,02,00,49,18.10
2017,09,02,00,50,18.10
2017,09,02,00,51,18.10
2017,09,02,00,52,18.10
2017,09,02,00,53,18.10
2017,09,02,00,54,18.10
2017,09,02,00,55,18.00
2017,09,02,00,56,18.00
2017,09,02,00,57,18.00
2017,09,02,00,58,18.00
2017,09,02,00,59,18.00
2017,09,02,01,00,18.00
2017,09,02,01,01,18.00
2017,09,02,01,02,18.00
2017,09,02,01,03,17.90
2017,09,02,01,04,17.90
2017,09,02,01,05,17.90
2017,09,02,01,06,17.90
2017,09,02,01,07,17.90
2017,09,02,01,08,17.90
2017,09,02,01,09,17.90
2017,09,02,01,10,17.90
2017,09,02,01,11,17.90
2017,09,02,01,12,17.90
2017,09,02,01,13,17.80
2017,09,02,01,14,17.80
2017,09,02,01,15,17.80
2017,09,02,01,16,17.80
2017,09,02,01,17,17.80
2017,09,02,01,18,17.80
2017,09,02,01,19,17.80
2017,09,02,01,20,17.80
2017,09,02,01,21,17.80
2017,09,02,01,22,17.80
2017,09,02,01,23,17.80
2017,09,02,01,24,17.70
2017,09,02,01,25,17.70
2017,09,02,01,26,17.70
2017,09,02,01,27,17.70
2017,09,02,01,28,17.70
2017,09,02,01,29,17.70
2017,09,02,01,30,17.70
2017,09,02,01,31,17.60
2017,09,02,01,32,17.60
2017,09,02,01,33,17.60
2017,09,02,01,34,17.60
2017,09,02,01,35,17.60
2017,09,02,01,36,17.60
2017,09,02,01,37,17.60
2017,09,02,01,38,17.60
2017,09,02,01,39,17.60
2017,09,02,01,40,17.60
2017,09,02,01,41,17.60
2017,09,02,01,42,17.60
2017,09,02,01,43,17.60
2017,09,02,01,44,17.50
2017,09,02,01,45,17.50
2017,09,02,01,46,17.50
2017,09,02,01,47,17.50
2017,09,02,01,48,17.50
2017,09,02,01,49,17.50
2017,09,02,01,50,17.50
2017,09,02,01,51,17.50
2017,09,02,01,52,17.50
2017,09,02,01,53,17.50
2017,09,02,01,54,17.50
2017,09,02,01,55,17.40
2017,09,02,01,56,17.40
2017,09,02,01,57,17.40
2017,09,02,01,58,17.40
2017,09,02,01,59,17.40
2017,09,02,02,00,17.40
2017,09,02,02,01,17.40
2017,09,02,02,02,17.30
2017,09,02,02,03,17.30
2017,09,02,02,04,17.30
2017,09,02,02,05,17.30
2017,09,02,02,06,17.30
2017,09,02,02,07,17.30
2017,09,02,02,08,17.30
2017,09,02,02,09,17.30
2017,09,02,02,10,17.30
2017,09,02,02,11,17.20
2017,09,02,02,12,17.20
2017,09,02,02,13,17.10
2017,09,02,02,14,17.10
2017,09,02,02,15,17.10
2017,09,02,02,16,17.10
2017,09,02,02,17,17.10
2017,09,02,02,18,17.10
2017,09,02,02,19,17.10
2017,09,02,02,20,17.10
2017,09,02,02,21,17.10
2017,09,02,02,22,17.10
2017,09,02,02,23,17.20
2017,09,02,02,24,17.20
2017,09,02,02,25,17.20
2017,09,02,02,26,17.20
2017,09,02,02,27,17.20
2017,09,02,02,28,17.20
2017,09,02,02,29,17.20
2017,09,02,02,30,17.20
2017,09,02,02,31,17.10
2017,09,02,02,32,17.10
2017,09,02,02,33,17.10
2017,09,02,02,34,17.10
2017,09,02,02,35,17.10
2017,09,02,02,36,17.10
2017,09,02,02,37,17.10
2017,09,02,02,38,17.00
2017,09,02,02,39,17.00
2017,09,02,02,40,17.00
2017,09,02,02,41,17.00
2017,09,02,02,42,17.00
2017,09,02,02,43,16.90
2017,09,02,02,44,16.90
2017,09,02,02,45,16.90
2017,09,02,02,46,16.90
2017,09,02,02,47,16.90
2017,09,02,02,48,16.90
2017,09,02,02,49,16.90
2017,09,02,02,50,16.90
2017,09,02,02,51,16.80
2017,09,02,02,52,16.80
2017,09,02,02,53,16.80
2017,09,02,02,54,16.80
2017,09,02,02,55,16.80
2017,09,02,02,56,16.80
2017,09,02,02,57,16.80
2017,09,02,02,58,16.80
2017,09,02,02,59,16.80
2017,09,02,03,00,16.80
2017,09,02,03,01,16.80
2017,09,02,03,02,16.80
2017,09,02,03,03,16.80
2017,09,02,03,04,16.80
2017,09,02,03,05,16.80
2017,09,02,03,06,16.70
2017,09,02,03,07,16.70
2017,09,02,03,08,16.70
2017,09,02,03,09,16.70
2017,09,02,03,10,16.70
2017,09,02,03,11,16.70
2017,09,02,03,12,16.70
2017,09,02,03,13,16.70
2017,09,02,03,14,16.70
2017,09,02,03,15,16.70
2017,09,02,03,16,16.60
2017,09,02,03,17,16.60
2017,09,02,03,18,16.60
2017,09,02,03,19,16.60
2017,09,02,03,20,16.60
2017,09,02,03,21,16.60
2017,09,02,03,22,16.50
2017,09,02,03,23,16.50
2017,09,02,03,24,16.50
2017,09,02,03,25,16.40
2017,09,02,03,26,16.40
2017,09,02,03,27,16.40
2017,09,02,03,28,16.40
2017,09,02,03,29,16.40
2017,09,02,03,30,16.40
2017,09,02,03,31,16.30
2017,09,02,03,32,16.30
2017,09,02,03,33,16.30
2017,09,02,03,34,16.30
2017,09,02,03,35,16.30
2017,09,02,03,36,16.30
2017,09,02,03,37,16.30
2017,09,02,03,38,16.30
2017,09,02,03,39,16.30
2017,09,02,03,40,16.30
2017,09,02,03,41,16.30
2017,09,02,03,42,16.30
2017,09,02,03,43,16.30
2017,09,02,03,44,16.30
2017,09,02,03,45,16.30
2017,09,02,03,46,16.30
2017,09,02,03,47,16.30
2017,09,02,03,48,16.20
2017,09,02,03,49,16.20
2017,09,02,03,50,16.20
2017,09,02,03,51,16.20
2017,09,02,03,52,16.20
2017,09,02,03,53,16.20
2017,09,02,03,54,16.20
2017,09,02,03,55,16.20
2017,09,02,03,56,16.20
2017,09,02,03,57,16.20
2017,09,02,03,58,16.20
2017,09,02,03,59,16.20
2017,09,02,04,00,16.20
2017,09,02,04,01,16.20
2017,09,02,04,02,16.20
2017,09,02,04,03,16.20
2017,09,02,04,04,16.20
2017,09,02,04,05,16.20
2017,09,02,04,06,16.20
2017,09,02,04,07,16.20
2017,09,02,04,08,16.20
2017,09,02,04,09,16.20
2017,09,02,04,10,16.20
2017,09,02,04,11,16.20
2017,09,02,04,12,16.20
2017,09,02,04,13,16.20
2017,09,02,04,14,16.20
2017,09,02,04,15,16.20
2017,09,02,04,16,16.20
2017,09,02,04,17,16.20
2017,09,02,04,18,16.20
2017,09,02,04,19,16.10
2017,09,02,04,20,16.10
2017,09,02,04,21,16.10
2017,09,02,04,22,16.10
2017,09,02,04,23,16.10
2017,09,02,04,24,16.10
2017,09,02,04,25,16.00
2017,09,02,04,26,16.00
2017,09,02,04,27,16.00
2017,09,02,04,28,16.00
2017,09,02,04,29,15.90
2017,09,02,04,30,15.90
2017,09,02,04,31,15.90
2017,09,02,04,32,15.90
2017,09,02,04,33,15.90
2017,09,02,04,34,15.80
2017,09,02,04,35,15.80
2017,09,02,04,36,15.80
2017,09,02,04,37,15.80
2017,09,02,04,38,15.80
2017,09,02,04,39,15.80
2017,09,02,04,40,15.80
2017,09,02,04,41,15.80
2017,09,02,04,42,15.80
2017,09,02,04,43,15.80
2017,09,02,04,44,15.80
2017,09,02,04,45,15.80
2017,09,02,04,46,15.80
2017,09,02,04,47,15.70
2017,09,02,04,48,15.70
2017,09,02,04,49,15.70
2017,09,02,04,50,15.70
2017,09,02,04,51,15.70
2017,09,02,04,52,15.70
2017,09,02,04,53,15.70
2017,09,02,04,54,15.70
2017,09,02,04,55,15.70
2017,09,02,04,56,15.70
2017,09,02,04,57,15.70
2017,09,02,04,58,15.70
2017,09,02,04,59,15.70
2017,09,02,05,00,15.70
2017,09,02,05,01,15.70
2017,09,02,05,02,15.70
2017,09,02,05,03,15.60
2017,09,02,05,04,15.60
2017,09,02,05,05,15.60
2017,09,02,05,06,15.60
2017,09,02,05,07,15.60
2017,09,02,05,08,15.60
2017,09,02,05,09,15.60
2017,09,02,05,10,15.60
2017,09,02,05,11,15.60
2017,09,02,05,12,15.60
2017,09,02,05,13,15.60
2017,09,02,05,14,15.60
2017,09,02,05,15,15.60
2017,09,02,05,16,15.60
2017,09,02,05,17,15.60
2017,09,02,05,18,15.50
2017,09,02,05,19,15.50
2017,09,02,05,20,15.50
2017,09,02,05,21,15.50
2017,09,02,05,22,15.50
2017,09,02,05,23,15.50
2017,09,02,05,24,15.50
2017,09,02,05,25,15.40
2017,09,02,05,26,15.40
2017,09,02,05,27,15.40
2017,09,02,05,28,15.40
2017,09,02,05,29,15.40
2017,09,02,05,30,15.40
2017,09,02,05,31,15.40
2017,09,02,05,32,15.30
2017,09,02,05,33,15.30
2017,09,02,05,34,15.30
2017,09,02,05,35,15.30
2017,09,02,05,36,15.30
2017,09,02,05,37,15.30
2017,09,02,05,38,15.30
2017,09,02,05,39,15.30
2017,09,02,05,40,15.30
2017,09,02,05,41,15.30
2017,09,02,05,42,15.30
2017,09,02,05,43,15.20
2017,09,02,05,44,15.20
2017,09,02,05,45,15.20
2017,09,02,05,46,15.20
2017,09,02,05,47,15.20
2017,09,02,05,48,15.20
2017,09,02,05,49,15.20
2017,09,02,05,50,15.20
2017,09,02,05,51,15.20
2017,09,02,05,52,15.20
2017,09,02,05,53,15.10
2017,09,02,05,54,15.10
2017,09,02,05,55,15.10
2017,09,02,05,56,15.10
2017,09,02,05,57,15.10
2017,09,02,05,58,15.10
2017,09,02,05,59,15.10
2017,09,02,06,00,15.10
2017,09,02,06,01,15.10
2017,09,02,06,02,15.00
2017,09,02,06,03,15.00
2017,09,02,06,04,15.00
2017,09,02,06,05,15.00
2017,09,02,06,06,15.00
2017,09,02,06,07,15.00
2017,09,02,06,08,14.90
2017,09,02,06,09,14.90
2017,09,02,06,10,14.90
2017,09,02,06,11,14.90
2017,09,02,06,12,14.90
2017,09,02,06,13,14.90
2017,09,02,06,14,14.90
2017,09,02,06,15,14.90
2017,09,02,06,16,14.90
2017,09,02,06,17,14.90
2017,09,02,06,18,14.90
2017,09,02,06,19,14.80
2017,09,02,06,20,14.80
2017,09,02,06,21,14.80
2017,09,02,06,22,14.80
2017,09,02,06,23,14.80
2017,09,02,06,24,14.80
2017,09,02,06,25,14.80
2017,09,02,06,26,14.80
2017,09,02,06,27,14.70
2017,09,02,06,28,14.70
2017,09,02,06,29,14.70
2017,09,02,06,30,14.70
2017,09,02,06,31,14.70
2017,09,02,06,32,14.70
2017,09,02,06,33,14.70
2017,09,02,06,34,14.70
2017,09,02,06,35,14.70
2017,09,02,06,36,14.70
2017,09,02,06,37,14.70
2017,09,02,06,38,14.70
2017,09,02,06,39,14.60
2017,09,02,06,40,14.60
2017,09,02,06,41,14.60
2017,09,02,06,42,14.60
2017,09,02,06,43,14.60
2017,09,02,06,44,14.70
2017,09,02,06,45,14.70
2017,09,02,06,46,14.70
2017,09,02,06,47,14.70
2017,09,02,06,48,14.70
2017,09,02,06,49,14.70
2017,09,02,06,50,14.70
2017,09,02,06,51,14.70
2017,09,02,06,52,14.70
2017,09,02,06,53,14.70
2017,09,02,06,54,14.70
2017,09,02,06,55,14.70
2017,09,02,06,56,14.70
2017,09,02,06,57,14.70
2017,09,02,06,58,14.70
2017,09,02,06,59,14.70
2017,09,02,07,00,14.70
2017,09,02,07,01,14.70
2017,09,02,07,02,14.70
2017,09,02,07,03,14.70
2017,09,02,07,04,14.70
2017,09,02,07,05,14.70
2017,09,02,07,06,14.70
2017,09,02,07,07,14.70
2017,09,02,07,08,14.70
2017,09,02,07,09,14.70
2017,09,02,07,10,14.70
2017,09,02,07,11,14.70
2017,09,02,07,12,14.70
2017,09,02,07,13,14.70
2017,09,02,07,14,14.70
2017,09,02,07,15,14.70
2017,09,02,07,16,14.70
2017,09,02,07,17,14.70
2017,09,02,07,18,14.70
2017,09,02,07,19,14.70
2017,09,02,07,20,14.70
2017,09,02,07,21,14.80
2017,09,02,07,22,14.80
2017,09,02,07,23,14.80
2017,09,02,07,24,14.80
2017,09,02,07,25,14.80
2017,09,02,07,26,14.80
2017,09,02,07,27,14.80
2017,09,02,07,28,14.80
2017,09,02,07,29,14.80
2017,09,02,07,30,14.80
2017,09,02,07,31,14.80
2017,09,02,07,32,14.80
2017,09,02,07,33,14.80
2017,09,02,07,34,14.80
2017,09,02,07,35,14.80
2017,09,02,07,36,14.80
2017,09,02,07,37,14.80
2017,09,02,07,38,14.80
2017,09,02,07,39,14.80
2017,09,02,07,40,14.90
2017,09,02,07,41,14.90
2017,09,02,07,42,14.90
2017,09,02,07,43,14.90
2017,09,02,07,44,14.90
2017,09,02,07,45,14.90
2017,09,02,07,46,14.90
2017,09,02,07,47,14.90
2017,09,02,07,48,14.90
2017,09,02,07,49,14.90
2017,09,02,07,50,15.00
2017,09,02,07,51,15.00
2017,09,02,07,52,15.10
2017,09,02,07,53,15.10
2017,09,02,07,54,15.20
2017,09,02,07,55,15.20
2017,09,02,07,56,15.30
2017,09,02,07,57,15.30
2017,09,02,07,58,15.40
2017,09,02,07,59,15.40
2017,09,02,08,00,15.50
2017,09,02,08,01,15.60
2017,09,02,08,02,15.60
2017,09,02,08,03,15.70
2017,09,02,08,04,15.80
2017,09,02,08,05,15.90
2017,09,02,08,06,15.90
2017,09,02,08,07,16.00
2017,09,02,08,08,16.10
2017,09,02,08,09,16.10
2017,09,02,08,10,16.20
2017,09,02,08,11,16.30
2017,09,02,08,12,16.40
2017,09,02,08,13,16.50
2017,09,02,08,14,16.60
2017,09,02,08,15,16.60
2017,09,02,08,16,16.70
2017,09,02,08,17,16.80
2017,09,02,08,18,16.90
2017,09,02,08,19,17.00
2017,09,02,08,20,17.10
2017,09,02,08,21,17.20
2017,09,02,08,22,17.20
2017,09,02,08,23,17.20
2017,09,02,08,24,17.30
2017,09,02,08,25,17.30
2017,09,02,08,26,17.30
2017,09,02,08,27,17.40
2017,09,02,08,28,17.40
2017,09,02,08,29,17.50
2017,09,02,08,30,17.50
2017,09,02,08,31,17.60
2017,09,02,08,32,17.60
2017,09,02,08,33,17.70
2017,09,02,08,34,17.70
2017,09,02,08,35,17.80
2017,09,02,08,36,17.80
2017,09,02,08,37,17.90
2017,09,02,08,38,17.90
2017,09,02,08,39,17.90
2017,09,02,08,40,18.00
2017,09,02,08,41,18.00
2017,09,02,08,42,18.10
2017,09,02,08,43,18.10
2017,09,02,08,44,18.10
2017,09,02,08,45,18.20
2017,09,02,08,46,18.20
2017,09,02,08,47,18.30
2017,09,02,08,48,18.40
2017,09,02,08,49,18.40
2017,09,02,08,50,18.50
2017,09,02,08,51,18.60
2017,09,02,08,52,18.70
2017,09,02,08,53,18.70
2017,09,02,08,54,18.80
2017,09,02,08,55,18.80
2017,09,02,08,56,18.90
2017,09,02,08,57,18.90
2017,09,02,08,58,19.00
2017,09,02,08,59,19.00
2017,09,02,09,00,19.00
2017,09,02,09,01,19.00
2017,09,02,09,02,19.10
2017,09,02,09,03,19.10
2017,09,02,09,04,19.20
2017,09,02,09,05,19.20
2017,09,02,09,06,19.30
2017,09,02,09,07,19.30
2017,09,02,09,08,19.40
2017,09,02,09,09,19.40
2017,09,02,09,10,19.50
2017,09,02,09,11,19.50
2017,09,02,09,12,19.60
2017,09,02,09,13,19.60
2017,09,02,09,14,19.60
2017,09,02,09,15,19.70
2017,09,02,09,16,19.70
2017,09,02,09,17,19.80
2017,09,02,09,18,19.80
2017,09,02,09,19,19.80
2017,09,02,09,20,19.80
2017,09,02,09,21,19.90
2017,09,02,09,22,19.90
2017,09,02,09,23,20.00
2017,09,02,09,24,20.00
2017,09,02,09,25,20.10
2017,09,02,09,26,20.10
2017,09,02,09,27,20.10
2017,09,02,09,28,20.20
2017,09,02,09,29,20.20
2017,09,02,09,30,20.30
2017,09,02,09,31,20.30
2017,09,02,09,32,20.40
2017,09,02,09,33,20.40
2017,09,02,09,34,20.50
2017,09,02,09,35,20.50
2017,09,02,09,36,20.60
2017,09,02,09,37,20.60
2017,09,02,09,38,20.70
2017,09,02,09,39,20.70
2017,09,02,09,40,20.70
2017,09,02,09,41,20.80
2017,09,02,09,42,20.90
2017,09,02,09,43,21.10
2017,09,02,09,44,21.20
2017,09,02,09,45,21.30
2017,09,02,09,46,21.40
2017,09,02,09,47,21.50
2017,09,02,09,48,21.50
2017,09,02,09,49,21.60
2017,09,02,09,50,21.60
2017,09,02,09,51,21.60
2017,09,02,09,52,21.60
2017,09,02,09,53,21.50
2017,09,02,09,54,21.50
2017,09,02,09,55,21.50
2017,09,02,09,56,21.60
2017,09,02,09,57,21.60
2017,09,02,09,58,21.60
2017,09,02,09,59,21.60
2017,09,02,10,00,21.60
2017,09,02,10,01,21.60
2017,09,02,10,02,21.50
2017,09,02,10,03,21.50
2017,09,02,10,04,21.50
2017,09,02,10,05,21.40
2017,09,02,10,06,21.40
2017,09,02,10,07,21.40
2017,09,02,10,08,21.40
2017,09,02,10,09,21.50
2017,09,02,10,10,21.50
2017,09,02,10,11,21.60
2017,09,02,10,12,21.60
2017,09,02,10,13,21.60
2017,09,02,10,14,21.70
2017,09,02,10,15,21.80
2017,09,02,10,16,21.80
2017,09,02,10,17,21.90
2017,09,02,10,18,21.90
2017,09,02,10,19,22.00
2017,09,02,10,20,22.10
2017,09,02,10,21,22.10
2017,09,02,10,22,22.20
2017,09,02,10,23,22.20
2017,09,02,10,24,22.20
2017,09,02,10,25,22.20
2017,09,02,10,26,22.30
2017,09,02,10,27,22.40
2017,09,02,10,28,22.40
2017,09,02,10,29,22.50
2017,09,02,10,30,22.60
2017,09,02,10,31,22.70
2017,09,02,10,32,22.70
2017,09,02,10,33,22.80
2017,09,02,10,34,22.90
2017,09,02,10,35,22.90
2017,09,02,10,36,22.90
2017,09,02,10,37,22.90
2017,09,02,10,38,22.90
2017,09,02,10,39,23.00
2017,09,02,10,40,23.00
2017,09,02,10,41,23.00
2017,09,02,10,42,23.00
2017,09,02,10,43,23.00
2017,09,02,10,44,23.10
2017,09,02,10,45,23.20
2017,09,02,10,46,23.40
2017,09,02,10,47,23.40
2017,09,02,10,48,23.50
2017,09,02,10,49,23.70
2017,09,02,10,50,23.80
2017,09,02,10,51,23.80
2017,09,02,10,52,23.90
2017,09,02,10,53,23.90
2017,09,02,10,54,23.90
2017,09,02,10,55,23.90
2017,09,02,10,56,24.00
2017,09,02,10,57,24.00
2017,09,02,10,58,24.10
2017,09,02,10,59,24.10
2017,09,02,11,00,24.10
2017,09,02,11,01,24.10
2017,09,02,11,02,24.20
2017,09,02,11,03,24.20
2017,09,02,11,04,24.30
2017,09,02,11,05,24.30
2017,09,02,11,06,24.30
2017,09,02,11,07,24.30
2017,09,02,11,08,24.40
2017,09,02,11,09,24.50
2017,09,02,11,10,24.60
2017,09,02,11,11,24.70
2017,09,02,11,12,24.80
2017,09,02,11,13,24.80
2017,09,02,11,14,24.80
2017,09,02,11,15,24.80
2017,09,02,11,16,24.80
2017,09,02,11,17,24.80
2017,09,02,11,18,24.70
2017,09,02,11,19,24.70
2017,09,02,11,20,24.70
2017,09,02,11,21,24.70
2017,09,02,11,22,24.70
2017,09,02,11,23,24.70
2017,09,02,11,24,24.80
2017,09,02,11,25,24.80
2017,09,02,11,26,24.80
2017,09,02,11,27,24.80
2017,09,02,11,28,24.80
2017,09,02,11,29,24.70
2017,09,02,11,30,24.70
2017,09,02,11,31,24.80
2017,09,02,11,32,24.80
2017,09,02,11,33,24.90
2017,09,02,11,34,24.90
2017,09,02,11,35,24.90
2017,09,02,11,36,24.90
2017,09,02,11,37,24.90
2017,09,02,11,38,24.90
2017,09,02,11,39,24.90
2017,09,02,11,40,25.00
2017,09,02,11,41,25.00
2017,09,02,11,42,25.00
2017,09,02,11,43,25.10
2017,09,02,11,44,25.10
2017,09,02,11,45,25.20
2017,09,02,11,46,25.20
2017,09,02,11,47,25.30
2017,09,02,11,48,25.30
2017,09,02,11,49,25.40
2017,09,02,11,50,25.50
2017,09,02,11,51,25.50
2017,09,02,11,52,25.60
2017,09,02,11,53,25.70
2017,09,02,11,54,25.80
2017,09,02,11,55,25.80
2017,09,02,11,56,25.90
2017,09,02,11,57,26.00
2017,09,02,11,58,26.10
2017,09,02,11,59,26.10
2017,09,02,12,00,26.10
2017,09,02,12,01,26.20
2017,09,02,12,02,26.20
2017,09,02,12,03,26.10
2017,09,02,12,04,26.10
2017,09,02,12,05,26.10
2017,09,02,12,06,26.10
2017,09,02,12,07,26.20
2017,09,02,12,08,26.20
2017,09,02,12,09,26.30
2017,09,02,12,10,26.30
2017,09,02,12,11,26.40
2017,09,02,12,12,26.40
2017,09,02,12,13,26.50
2017,09,02,12,14,26.60
2017,09,02,12,15,26.70
2017,09,02,12,16,26.80
2017,09,02,12,17,26.90
2017,09,02,12,18,26.90
2017,09,02,12,19,27.00
2017,09,02,12,20,27.10
2017,09,02,12,21,27.20
2017,09,02,12,22,27.30
2017,09,02,12,23,27.40
2017,09,02,12,24,27.50
2017,09,02,12,25,27.60
2017,09,02,12,26,27.70
2017,09,02,12,27,27.70
2017,09,02,12,28,27.80
2017,09,02,12,29,27.80
2017,09,02,12,30,27.80
2017,09,02,12,31,27.80
2017,09,02,12,32,27.80
2017,09,02,12,33,27.80
2017,09,02,12,34,27.80
2017,09,02,12,35,27.90
2017,09,02,12,36,28.10
2017,09,02,12,37,28.10
2017,09,02,12,38,28.20
2017,09,02,12,39,28.20
2017,09,02,12,40,28.30
2017,09,02,12,41,28.30
2017,09,02,12,42,28.20
2017,09,02,12,43,28.10
2017,09,02,12,44,28.10
2017,09,02,12,45,28.10
2017,09,02,12,46,28.10
2017,09,02,12,47,28.10
2017,09,02,12,48,28.00
2017,09,02,12,49,28.00
2017,09,02,12,50,28.00
2017,09,02,12,51,28.00
2017,09,02,12,52,28.10
2017,09,02,12,53,28.20
2017,09,02,12,54,28.20
2017,09,02,12,55,28.20
2017,09,02,12,56,28.30
2017,09,02,12,57,28.40
2017,09,02,12,58,28.40
2017,09,02,12,59,28.40
2017,09,02,13,00,28.50
2017,09,02,13,01,28.50
2017,09,02,13,02,28.60
2017,09,02,13,03,28.70
2017,09,02,13,04,28.70
2017,09,02,13,05,28.80
2017,09,02,13,06,28.90
2017,09,02,13,07,29.10
2017,09,02,13,08,29.10
2017,09,02,13,09,29.10
2017,09,02,13,10,29.10
2017,09,02,13,11,29.00
2017,09,02,13,12,28.90
2017,09,02,13,13,29.00
2017,09,02,13,14,29.10
2017,09,02,13,15,29.10
2017,09,02,13,16,29.20
2017,09,02,13,17,29.30
2017,09,02,13,18,29.50
2017,09,02,13,19,29.60
2017,09,02,13,20,29.70
2017,09,02,13,21,29.70
2017,09,02,13,22,29.70
2017,09,02,13,23,29.60
2017,09,02,13,24,29.60
2017,09,02,13,25,29.60
2017,09,02,13,26,29.60
2017,09,02,13,27,29.70
2017,09,02,13,28,29.70
2017,09,02,13,29,29.60
2017,09,02,13,30,29.70
2017,09,02,13,31,29.80
2017,09,02,13,32,29.90
2017,09,02,13,33,29.90
2017,09,02,13,34,29.90
2017,09,02,13,35,29.90
2017,09,02,13,36,30.20
2017,09,02,13,37,30.30
2017,09,02,13,38,30.30
2017,09,02,13,39,30.30
2017,09,02,13,40,30.30
2017,09,02,13,41,30.30
2017,09,02,13,42,30.20
2017,09,02,13,43,30.30
2017,09,02,13,44,30.30
2017,09,02,13,45,30.30
2017,09,02,13,46,30.40
2017,09,02,13,47,30.40
2017,09,02,13,48,30.40
2017,09,02,13,49,30.50
2017,09,02,13,50,30.50
2017,09,02,13,51,30.60
2017,09,02,13,52,30.60
2017,09,02,13,53,30.60
2017,09,02,13,54,30.70
2017,09,02,13,55,30.70
2017,09,02,13,56,30.70
2017,09,02,13,57,30.70
2017,09,02,13,58,30.70
2017,09,02,13,59,30.90
2017,09,02,14,00,31.20
2017,09,02,14,01,31.20
2017,09,02,14,02,31.20
2017,09,02,14,03,31.20
2017,09,02,14,04,31.20
2017,09,02,14,05,31.30
2017,09,02,14,06,31.30
2017,09,02,14,07,31.20
2017,09,02,14,08,31.10
2017,09,02,14,09,31.10
2017,09,02,14,10,31.10
2017,09,02,14,11,31.10
2017,09,02,14,12,31.10
2017,09,02,14,13,31.20
2017,09,02,14,14,31.20
2017,09,02,14,15,31.20
2017,09,02,14,16,31.20
2017,09,02,14,17,31.10
2017,09,02,14,18,31.10
2017,09,02,14,19,31.10
2017,09,02,14,20,31.10
2017,09,02,14,21,31.10
2017,09,02,14,22,31.10
2017,09,02,14,23,31.20
2017,09,02,14,24,31.30
2017,09,02,14,25,31.40
2017,09,02,14,26,31.50
2017,09,02,14,27,31.60
2017,09,02,14,28,31.70
2017,09,02,14,29,31.80
2017,09,02,14,30,31.80
2017,09,02,14,31,31.90
2017,09,02,14,32,32.00
2017,09,02,14,33,32.10
2017,09,02,14,34,32.20
2017,09,02,14,35,32.10
2017,09,02,14,36,32.10
2017,09,02,14,37,32.00
2017,09,02,14,38,32.00
2017,09,02,14,39,31.90
2017,09,02,14,40,31.80
2017,09,02,14,41,31.80
2017,09,02,14,42,31.70
2017,09,02,14,43,31.80
2017,09,02,14,44,31.80
2017,09,02,14,45,31.80
2017,09,02,14,46,31.90
2017,09,02,14,47,31.90
2017,09,02,14,48,31.90
2017,09,02,14,49,31.90
2017,09,02,14,50,31.90
2017,09,02,14,51,32.00
2017,09,02,14,52,32.10
2017,09,02,14,53,32.10
2017,09,02,14,54,32.20
2017,09,02,14,55,32.30
2017,09,02,14,56,32.40
2017,09,02,14,57,32.40
2017,09,02,14,58,32.40
2017,09,02,14,59,32.40
2017,09,02,15,00,32.40
2017,09,02,15,01,32.40
2017,09,02,15,02,32.40
2017,09,02,15,03,32.40
2017,09,02,15,04,32.50
2017,09,02,15,05,32.60
2017,09,02,15,06,32.70
2017,09,02,15,07,32.70
2017,09,02,15,08,32.70
2017,09,02,15,09,32.70
2017,09,02,15,10,32.80
2017,09,02,15,11,32.90
2017,09,02,15,12,33.00
2017,09,02,15,13,33.00
2017,09,02,15,14,33.10
2017,09,02,15,15,33.00
2017,09,02,15,16,32.90
2017,09,02,15,17,32.90
2017,09,02,15,18,32.80
2017,09,02,15,19,32.80
2017,09,02,15,20,32.80
2017,09,02,15,21,32.80
2017,09,02,15,22,32.70
2017,09,02,15,23,32.70
2017,09,02,15,24,32.70
2017,09,02,15,25,32.70
2017,09,02,15,26,32.70
2017,09,02,15,27,32.70
2017,09,02,15,28,32.70
2017,09,02,15,29,32.80
2017,09,02,15,30,32.80
2017,09,02,15,31,32.80
2017,09,02,15,32,32.70
2017,09,02,15,33,32.70
2017,09,02,15,34,32.70
2017,09,02,15,35,32.80
2017,09,02,15,36,32.80
2017,09,02,15,37,32.80
2017,09,02,15,38,32.70
2017,09,02,15,39,32.70
2017,09,02,15,40,32.70
2017,09,02,15,41,32.70
2017,09,02,15,42,32.60
2017,09,02,15,43,32.60
2017,09,02,15,44,32.50
2017,09,02,15,45,32.40
2017,09,02,15,46,32.40
2017,09,02,15,47,32.50
2017,09,02,15,48,32.40
2017,09,02,15,49,32.50
2017,09,02,15,50,32.50
2017,09,02,15,51,32.60
2017,09,02,15,52,32.60
2017,09,02,15,53,32.60
2017,09,02,15,54,32.60
2017,09,02,15,55,32.50
2017,09,02,15,56,32.40
2017,09,02,15,57,32.30
2017,09,02,15,58,32.30
2017,09,02,15,59,32.30
2017,09,02,16,00,32.30
2017,09,02,16,01,32.30
2017,09,02,16,02,32.30
2017,09,02,16,03,32.30
2017,09,02,16,04,32.30
2017,09,02,16,05,32.40
2017,09,02,16,06,32.30
2017,09,02,16,07,32.20
2017,09,02,16,08,32.10
2017,09,02,16,09,32.10
2017,09,02,16,10,32.10
2017,09,02,16,11,32.10
2017,09,02,16,12,32.10
2017,09,02,16,13,32.00
2017,09,02,16,14,32.00
2017,09,02,16,15,31.90
2017,09,02,16,16,31.90
2017,09,02,16,17,31.90
2017,09,02,16,18,32.00
2017,09,02,16,19,32.10
2017,09,02,16,20,32.20
2017,09,02,16,21,32.30
2017,09,02,16,22,32.20
2017,09,02,16,23,32.10
2017,09,02,16,24,32.10
2017,09,02,16,25,32.10
2017,09,02,16,26,32.20
2017,09,02,16,27,32.20
2017,09,02,16,28,32.20
2017,09,02,16,29,32.20
2017,09,02,16,30,32.20
2017,09,02,16,31,32.20
2017,09,02,16,32,32.20
2017,09,02,16,33,32.20
2017,09,02,16,34,32.20
2017,09,02,16,35,32.30
2017,09,02,16,36,32.20
2017,09,02,16,37,32.20
2017,09,02,16,38,32.20
2017,09,02,16,39,32.10
2017,09,02,16,40,32.10
2017,09,02,16,41,32.10
2017,09,02,16,42,32.10
2017,09,02,16,43,32.10
2017,09,02,16,44,32.10
2017,09,02,16,45,32.10
2017,09,02,16,46,32.10
2017,09,02,16,47,32.00
2017,09,02,16,48,32.10
2017,09,02,16,49,32.00
2017,09,02,16,50,32.00
2017,09,02,16,51,31.90
2017,09,02,16,52,31.90
2017,09,02,16,53,31.80
2017,09,02,16,54,31.80
2017,09,02,16,55,31.80
2017,09,02,16,56,31.80
2017,09,02,16,57,31.80
2017,09,02,16,58,31.80
2017,09,02,16,59,31.80
2017,09,02,17,00,31.80
2017,09,02,17,01,31.80
2017,09,02,17,02,31.80
2017,09,02,17,03,31.80
2017,09,02,17,04,31.80
2017,09,02,17,05,31.80
2017,09,02,17,06,31.80
2017,09,02,17,07,31.80
2017,09,02,17,08,31.80
2017,09,02,17,09,31.80
2017,09,02,17,10,31.70
2017,09,02,17,11,31.70
2017,09,02,17,12,31.60
2017,09,02,17,13,31.60
2017,09,02,17,14,31.60
2017,09,02,17,15,31.60
2017,09,02,17,16,31.60
2017,09,02,17,17,31.50
2017,09,02,17,18,31.50
2017,09,02,17,19,31.50